Hourly Data Report for October 18, 2015

All times are specified in Local Standard Time (LST). Add 1 hour to adjust for Daylight Saving Time where and when it is observed.

CLYDE RIVER A
NUNAVUT

70°29'09.000" N
68°31'01.000" W
26.50 m
2400804
71090
YCY

Download Data

Hourly Data (October 2015)
Hourly Data Report for October 18, 2015
Temp Definition
°C
Dew Point Temp Definition
°C
Rel Hum Definition
%
Wind Dir Definition
10's deg

Wind Spd Definition
km/h
Visibility Definition
km
Stn Press Definition
kPa
Hmdx Definition


Wind Chill Definition


Weather Definition


TIME
00:00 Legend Double Dagger -7.7 -9.4 88 28 17 6.4 100.21   -14 Snow
01:00 Legend Double Dagger -8.0 -9.5 89 28 17 6.4 100.25   -15 Snow
02:00 Legend Double Dagger -7.8 -9.9 85 28 18 16.1 100.25   -15 Snow
03:00 Legend Double Dagger -7.8 -10.1 84 28 21 16.1 100.26   -15 LegendNANA
04:00 Legend Double Dagger -7.6 -9.7 85 29 18 12.9 100.28   -14 Snow
05:00 Legend Double Dagger -7.9 -9.6 88 29 17 4.8 100.30   -15 Snow
06:00 Legend Double Dagger -7.9 -9.7 87 29 18 9.7 100.33   -15 Snow
07:00 Legend Double Dagger -7.7 -9.1 90 29 18 16.1 100.32   -15 Snow
08:00 Legend Double Dagger -7.4 -9.4 86 29 21 16.1 100.31   -15 Snow
09:00 Legend Double Dagger -7.0 -9.2 85 28 13 16.1 100.34   -13 Snow
10:00 Legend Double Dagger -6.7 -9.0 84 29 15 16.1 100.33   -13 Snow
11:00 Legend Double Dagger -6.8 -9.1 84 29 13 16.1 100.35   -12 LegendNANA
12:00 Legend Double Dagger -7.8 -10.2 83 30 13 16.1 100.35   -14 LegendNANA
13:00 Legend Double Dagger -10.2 -12.3 85   0 16.1 100.39     LegendNANA
14:00 Legend Double Dagger -11.0 -13.3 83 7 5 16.1 100.42   -14 LegendNANA
15:00 Legend Double Dagger -9.6 -12.0 83 18 17 16.1 100.45   -17 LegendNANA
16:00 Legend Double Dagger -11.2 -14.2 79 LegendMM 4 16.1 100.48   -14 LegendNANA
17:00 Legend Double Dagger -13.2 -15.2 85 LegendMM 4 16.1 100.49   -16 LegendNANA
18:00 Legend Double Dagger -12.2 -14.6 83   0 16.1 100.50     LegendNANA
19:00 Legend Double Dagger -13.4 -15.3 86 7 4 16.1 100.54   -16 LegendNANA
20:00 Legend Double Dagger -15.6 -17.4 87 31 4 16.1 100.54   -19 LegendNANA
21:00 Legend Double Dagger -15.2 -17.0 87 LegendMM 4 16.1 100.56   -18 LegendNANA
22:00 Legend Double Dagger -11.7 -14.1 83 28 5 16.1 100.56   -15 LegendNANA
23:00 Legend Double Dagger -11.9 -14.2 84 29 11 16.1 100.58   -18 LegendNANA

Notes on Data Quality.

Legend

  • E = Estimated
  • M = Missing
  • NA = Not Available
  • ‡ = Partner data that is not subject to review by the National Climate Archives
Date modified: